Theta_e
322 328 329 327 326 324 322 319 318 320 321 321 322 323 323 322 322 322 322 321 320 317 316 315 311 312 313 313 313 313 313 313 313 315 318 317 316 315 314 314 313 316 321 324 324 324 323 323 324 325 327 327 328 329 331 333 333 333 333 333 333 333
323 327 329 328 326 324 323 320 318 320 321 322 322 323 323 322 322 322 322 321 320 317 315 315 312 311 313 313 313 313 313 313 313 315 317 317 315 315 314 314 313 315 322 325 326 328 328 328 328 329 330 330 330 331 333 334 333 333 333 333 333 333
324 327 327 327 326 324 321 320 319 319 321 322 322 323 322 322 322 321 321 320 319 316 315 315 313 311 312 313 313 313 313 313 314 315 317 317 315 314 314 314 313 314 319 324 326 328 329 329 330 330 331 331 332 332 333 333 333 333 333 333 333 333
325 328 327 325 325 325 322 320 320 319 320 321 321 321 321 321 321 321 319 318 318 316 314 315 314 312 312 313 313 313 313 313 314 315 316 317 315 315 314 314 314 313 316 323 326 327 327 328 328 329 330 330 331 332 332 332 332 333 333 333 333 333
328 325 324 322 322 323 322 321 321 319 319 319 320 320 320 320 319 320 318 316 317 315 314 315 315 313 312 312 313 313 313 314 314 315 316 316 315 315 315 314 314 313 315 320 324 326 326 327 328 328 329 329 329 329 330 330 331 332 333 333 333 333
333 327 324 322 323 322 319 320 320 318 318 317 318 319 318 319 318 318 317 317 316 315 314 314 314 314 313 312 313 313 314 314 314 315 316 316 316 315 315 315 314 314 314 315 319 324 325 327 328 327 327 326 327 327 327 328 330 331 333 333 333 333
337 334 330 325 327 327 320 318 319 318 317 316 317 318 317 318 318 317 316 317 317 315 314 314 314 314 314 313 312 313 314 314 314 315 315 316 316 315 315 315 314 314 314 313 316 321 325 327 326 326 326 326 326 326 326 327 329 331 332 333 333 333
338 338 336 332 330 329 324 319 318 318 317 316 317 317 317 316 316 317 316 317 316 314 314 313 313 313 314 313 313 313 313 314 314 314 315 315 315 315 315 314 314 313 314 313 316 323 325 325 326 326 327 326 327 327 327 327 328 331 332 333 333 333
337 339 339 337 332 328 325 321 317 318 318 316 316 316 316 317 316 317 317 317 316 314 314 314 314 313 313 314 313 313 312 313 314 314 314 314 315 314 314 314 313 313 313 313 316 323 325 323 326 327 326 326 327 327 327 326 328 330 332 333 332 332
336 337 337 337 334 330 325 321 318 318 319 317 316 316 316 316 316 317 317 317 316 314 314 314 314 314 313 314 314 313 313 312 313 313 314 314 314 314 314 313 313 313 313 313 314 319 322 323 325 326 326 326 327 326 326 327 328 330 332 333 332 332
334 335 335 334 334 336 330 321 318 318 318 318 317 316 316 316 316 317 318 317 316 314 314 314 314 314 314 314 313 313 314 313 313 313 313 314 314 314 313 313 313 313 313 313 312 315 319 322 324 326 326 326 326 327 327 327 328 330 332 333 332 332
332 333 333 331 332 336 334 324 318 318 318 318 318 316 316 317 317 317 317 317 316 315 314 314 314 314 314 314 314 313 314 314 313 313 313 313 313 313 313 313 313 313 313 313 313 313 315 320 324 326 326 326 327 328 328 328 329 331 332 333 333 332
331 330 329 329 329 330 330 326 321 317 318 318 318 318 317 317 317 317 317 317 317 316 315 314 314 314 314 314 314 314 314 314 314 314 314 314 313 313 313 313 313 313 313 313 313 312 313 318 324 326 326 326 328 329 329 329 330 331 332 333 332 332
334 332 331 328 327 326 326 328 323 317 317 318 317 318 317 317 317 317 317 317 317 316 315 315 314 314 314 314 314 314 314 314 314 314 314 314 314 313 313 313 313 313 313 313 313 312 312 318 323 325 326 326 328 330 330 329 330 332 333 333 333 332
337 336 334 328 325 327 327 327 324 319 316 317 318 318 317 317 317 317 316 317 317 316 316 315 314 314 314 314 314 314 314 314 314 314 314 314 313 314 313 313 313 313 313 312 313 312 314 319 324 326 326 326 328 329 330 330 331 332 333 334 333 332
338 337 335 330 327 329 330 328 325 322 318 317 318 318 318 318 317 317 317 317 317 317 317 316 315 315 314 314 314 314 314 314 314 314 314 314 314 313 313 313 313 313 314 315 315 315 316 321 325 326 326 327 328 329 330 331 332 333 334 334 333 332
335 336 336 333 330 331 334 333 328 323 318 317 318 318 318 318 318 318 317 317 317 317 317 317 316 316 316 315 314 314 314 314 314 313 313 313 313 313 313 313 314 315 317 320 322 322 322 323 324 325 325 326 327 328 328 331 332 334 334 333 333 333
332 333 334 334 332 332 334 333 327 323 321 317 317 318 318 318 318 318 318 318 317 317 317 317 317 316 317 317 316 316 315 314 314 314 313 314 314 314 314 316 319 320 322 326 328 329 328 328 328 327 327 328 329 329 328 329 331 333 333 333 334 334
333 330 331 334 333 332 332 330 324 324 324 321 318 318 318 318 318 318 318 318 318 318 317 317 317 317 318 318 318 319 318 316 315 315 314 315 316 317 320 323 326 328 330 333 333 333 333 333 333 333 332 332 331 331 330 329 330 332 333 334 335 334
334 330 329 333 334 333 331 330 326 324 324 323 321 319 318 318 318 318 318 318 318 318 318 318 318 318 318 318 318 320 321 319 318 317 317 318 320 322 326 329 331 332 334 335 336 336 336 335 335 335 334 334 333 332 331 331 332 333 334 335 335 335
336 333 329 331 334 333 330 329 327 325 323 322 323 324 321 318 318 318 318 318 318 318 318 319 319 319 319 319 319 320 323 323 322 320 320 322 325 328 330 332 334 334 335 336 337 336 336 335 334 334 335 335 334 332 332 332 333 334 335 336 336 334
340 337 333 329 329 330 330 329 328 326 323 322 325 327 324 319 317 318 318 318 318 318 319 318 319 319 319 320 321 320 321 324 326 324 324 325 328 330 332 334 335 335 336 336 337 336 335 335 334 333 334 335 334 333 332 333 334 335 336 336 335 334
340 340 337 334 330 328 330 329 329 326 322 322 325 326 324 321 319 318 318 318 318 318 318 318 318 318 319 319 321 323 322 324 327 328 327 327 328 329 331 334 335 336 336 336 336 336 336 335 334 333 333 334 334 334 333 333 334 335 336 336 335 334
338 342 340 338 335 331 329 328 328 326 323 322 323 322 323 323 321 319 318 318 318 318 318 318 317 318 318 319 320 322 324 325 327 328 328 329 330 330 332 334 335 336 336 336 336 336 336 335 334 333 333 334 334 334 334 334 334 335 335 335 335 335
338 342 342 341 339 335 333 329 326 327 327 326 323 321 322 322 322 320 320 319 319 319 319 318 318 318 318 319 320 321 324 326 327 328 329 331 332 332 333 335 335 336 336 336 336 336 335 334 333 332 333 334 335 335 335 334 334 334 334 334 334 335
341 343 342 342 341 338 335 332 328 328 329 328 327 324 322 321 321 320 319 319 320 320 320 320 320 319 319 319 320 322 324 325 326 328 331 333 334 335 335 335 335 335 336 336 336 336 334 333 332 330 331 333 334 335 335 335 334 334 334 334 334 334
342 343 343 343 342 340 338 335 332 329 328 328 327 325 322 321 320 319 319 319 319 320 320 320 320 320 319 319 322 324 325 327 329 332 334 335 336 337 337 336 336 336 336 336 336 335 333 333 332 330 330 333 334 335 335 335 335 335 335 335 334 334
342 342 343 343 343 342 340 337 335 332 331 329 328 326 324 324 323 322 322 321 321 320 320 320 320 320 320 323 327 329 330 332 334 335 335 336 336 337 338 338 338 337 336 336 336 335 333 333 332 330 331 334 335 336 336 335 336 335 335 336 335 334
341 342 342 343 344 343 342 339 337 335 333 331 330 329 328 327 327 326 324 323 322 321 320 320 321 322 324 328 333 334 335 336 336 335 335 336 336 336 337 338 338 338 337 336 335 335 334 332 331 330 332 335 336 336 336 336 335 336 336 336 335 335
340 342 341 342 343 344 343 341 339 337 335 333 331 331 331 330 329 327 326 325 324 322 322 323 323 325 329 334 335 336 337 337 335 335 335 336 335 335 335 335 336 336 336 336 335 335 334 332 331 331 333 335 335 335 336 336 336 336 336 336 335 335
339 341 340 342 343 343 343 342 341 339 337 335 334 333 332 332 331 329 328 326 325 325 326 327 326 328 333 336 337 337 338 336 335 336 336 336 335 334 333 334 334 335 334 334 334 334 333 332 332 333 333 334 335 335 336 336 336 336 336 335 335 335
340 339 340 345 345 343 342 341 342 341 339 338 336 335 334 333 333 331 330 329 328 330 330 330 330 332 335 337 338 338 337 337 336 337 337 336 335 334 333 333 333 332 332 333 333 333 332 331 334 334 333 333 335 336 335 336 336 336 336 336 335 334
340 342 343 346 345 342 341 340 341 342 341 339 338 338 336 335 334 333 332 331 331 332 332 332 333 335 337 338 338 338 338 338 337 337 337 337 336 335 334 333 331 330 332 333 333 333 331 332 335 335 334 334 334 335 335 335 336 336 336 336 335 335
339 343 344 346 344 342 341 339 340 342 342 341 340 339 339 338 337 335 334 333 333 333 333 333 334 336 338 337 337 338 339 338 338 337 337 337 336 336 335 333 330 331 333 334 333 332 331 333 335 335 335 334 335 336 335 336 337 336 336 336 335 335
339 342 343 345 342 339 340 339 340 342 342 342 340 340 340 339 338 337 336 336 335 335 334 334 334 336 337 335 336 338 339 338 338 338 337 337 337 336 335 332 331 332 334 334 333 332 333 334 335 334 334 335 335 336 336 337 337 336 336 335 335 335
339 343 343 343 340 336 336 338 339 341 342 342 342 340 339 338 338 338 338 337 337 337 336 335 335 336 337 336 337 338 338 337 338 338 338 337 337 336 335 332 331 331 333 334 333 333 335 335 335 335 335 336 336 336 337 337 336 336 336 336 335 335
335 342 342 342 340 337 336 338 340 341 340 340 341 341 339 338 338 338 338 339 338 338 337 337 337 337 338 338 338 338 337 337 337 338 337 337 337 336 335 332 331 331 332 333 333 334 336 336 336 336 336 336 337 336 337 337 336 336 336 336 335 334
Wind_Speed
42 42 40 38 37 34 32 30 29 29 28 28 27 27 26 25 24 23 23 22 21 22 24 25 26 27 27 26 25 24 23 21 19 17 15 15 14 14 14 13 13 13 12 11 10 9 7 6 5 4 4 4 4 3 3 4 4 5 5 5 4 4
43 43 41 39 38 35 33 32 31 30 29 29 28 27 27 26 26 24 24 23 23 23 25 26 26 27 28 27 26 25 23 22 20 18 16 15 15 14 13 13 12 13 12 11 11 9 8 6 5 5 4 4 3 3 2 3 4 5 6 6 6 5
45 44 42 40 38 36 35 34 33 32 30 30 29 28 28 27 27 26 25 24 24 23 25 26 26 27 27 27 26 26 25 23 21 19 18 16 16 15 14 13 12 12 12 11 10 9 8 6 5 5 4 4 4 3 4 4 5 5 5 6 6 5
46 45 43 40 40 39 37 36 35 33 31 31 30 29 28 28 27 26 25 25 24 24 24 25 26 27 27 27 27 27 26 24 22 21 19 17 17 15 14 13 11 11 12 11 10 9 8 7 6 5 5 5 5 5 6 7 7 6 5 6 6 5
45 45 43 42 41 40 38 37 36 34 32 31 30 30 29 28 28 27 25 24 24 24 24 25 26 27 28 28 28 28 27 26 24 22 20 18 17 16 14 13 12 11 11 11 11 9 8 8 7 6 5 5 6 7 9 10 8 6 5 6 5 5
42 44 43 43 43 42 40 39 37 35 33 31 31 30 29 28 27 26 25 24 25 25 25 25 25 26 27 28 28 28 28 26 25 23 21 19 18 17 15 14 12 11 11 12 12 11 9 8 8 6 5 5 6 7 9 10 8 6 5 5 5 4
39 43 44 44 44 43 41 39 37 36 34 32 32 31 30 29 28 26 25 25 25 26 26 25 25 25 26 27 28 28 27 26 25 23 21 20 19 18 16 15 14 12 12 11 12 12 10 9 8 7 5 5 6 7 9 10 8 6 5 5 5 4
37 39 41 43 45 43 42 40 38 37 35 32 32 32 31 29 28 27 26 26 26 26 26 25 24 24 25 26 27 27 26 26 25 23 22 21 19 18 17 16 15 13 12 12 11 12 11 9 9 8 6 5 6 7 8 9 8 6 5 5 4 3
37 37 36 38 42 43 41 40 39 39 37 33 32 32 31 30 29 28 27 27 27 27 26 25 24 23 24 24 25 25 26 25 24 23 22 21 20 19 18 17 15 14 13 12 12 12 11 11 10 9 7 6 6 6 7 7 6 6 5 4 3 3
38 38 37 37 40 42 42 41 40 40 38 35 32 32 32 31 31 29 29 29 28 27 26 25 24 23 23 23 23 24 25 24 24 23 22 21 20 19 18 17 15 14 13 13 13 14 13 13 12 11 8 7 7 7 7 6 5 5 4 4 4 4
38 39 40 41 41 40 41 42 41 41 39 36 34 33 32 32 32 31 30 30 29 28 26 25 24 23 23 23 23 23 23 23 23 22 21 20 19 19 18 17 16 14 14 14 14 14 15 15 14 12 10 8 8 8 7 6 4 4 4 4 4 4
41 41 41 44 43 40 41 42 42 41 39 37 35 33 32 33 32 31 31 30 30 29 27 26 25 24 23 22 22 22 22 22 22 21 20 20 20 19 18 17 16 15 15 14 14 15 16 16 15 14 12 10 8 7 6 5 4 4 4 4 5 5
44 43 44 45 45 43 43 43 42 41 39 37 35 33 33 33 32 31 31 31 30 29 28 27 26 25 24 23 22 22 21 21 21 20 20 20 20 20 19 18 17 16 15 15 15 15 16 16 16 15 14 11 8 6 6 5 4 5 5 5 6 6
43 44 44 45 45 44 43 43 43 42 39 37 35 34 33 33 32 31 30 30 30 29 28 27 27 26 24 23 22 22 21 20 20 20 20 20 20 20 19 18 17 16 16 15 15 16 17 17 17 16 15 13 9 6 6 5 5 5 6 6 7 7
40 41 42 43 44 43 43 43 43 42 40 37 35 34 34 34 33 32 31 30 30 29 28 27 27 26 25 24 23 23 21 20 20 20 21 21 20 20 19 18 17 16 16 16 15 16 16 16 16 15 15 13 9 7 6 6 5 6 7 7 8 8
39 38 37 40 42 41 40 41 42 41 39 38 37 36 34 34 33 32 32 31 30 29 28 27 26 26 25 25 24 23 22 21 21 21 21 21 20 20 19 18 17 17 16 15 15 15 16 16 15 15 15 13 10 8 7 6 7 7 8 9 10 10
41 38 36 38 40 39 37 38 41 40 40 40 39 38 36 34 33 32 32 30 30 29 28 27 26 26 25 25 24 23 22 21 21 21 21 21 20 19 18 18 17 17 16 15 15 15 15 15 15 15 14 14 12 11 9 8 8 8 9 10 11 11
41 40 39 39 38 39 38 38 41 41 41 42 41 40 38 36 34 33 32 30 29 28 28 27 27 27 26 25 23 22 22 22 22 22 22 21 20 19 19 18 17 16 15 14 14 13 13 13 13 13 14 14 13 12 10 9 10 10 11 12 12 12
41 43 44 41 38 39 39 38 42 42 40 42 43 42 40 38 36 34 33 31 29 28 28 28 28 27 26 25 23 21 22 22 22 22 22 21 20 19 18 17 16 15 14 13 12 12 12 13 13 14 15 15 14 11 10 10 10 11 13 13 12 13
39 44 45 42 38 38 39 39 42 43 42 41 42 42 41 39 37 36 34 32 31 29 29 29 28 26 25 24 23 21 21 22 23 23 23 22 20 19 17 16 15 14 13 11 11 11 12 14 15 16 16 16 15 12 10 10 11 12 13 13 13 13
35 40 42 44 43 41 42 43 43 44 43 42 41 40 41 41 38 37 35 34 32 30 30 29 27 25 24 24 23 21 21 22 23 23 23 22 19 18 16 15 14 13 12 11 10 12 14 15 16 17 17 16 16 14 11 10 10 12 13 13 14 14
31 36 39 42 45 46 45 44 42 43 42 41 40 38 39 40 39 37 36 35 33 31 30 29 26 25 24 24 24 22 22 22 22 22 21 20 19 19 17 15 14 13 12 11 12 13 14 15 15 16 16 15 15 14 12 11 11 12 13 13 15 15
28 33 36 40 44 47 46 42 39 40 42 41 39 37 37 38 38 37 36 34 32 31 30 28 26 26 25 24 24 24 23 23 22 22 20 19 19 19 18 16 15 13 12 13 14 14 14 14 14 13 13 12 12 11 10 11 11 12 13 14 15 15
29 30 33 37 41 43 43 41 39 39 40 39 37 36 38 38 37 36 36 34 32 31 30 28 26 26 25 25 25 24 24 23 23 22 21 20 19 18 17 16 15 14 14 15 15 14 15 14 13 11 10 9 9 9 8 9 10 11 13 14 15 16
31 30 30 31 35 39 40 40 41 40 37 36 37 40 42 41 38 36 35 34 32 31 29 28 27 26 26 25 25 24 24 24 23 22 21 20 19 19 18 17 16 16 16 16 15 15 15 14 12 10 10 10 9 7 7 9 11 11 11 12 14 15
31 30 27 27 30 35 38 40 42 42 40 39 39 42 43 41 38 36 35 34 32 30 29 28 27 27 26 26 25 24 24 22 21 20 20 19 19 19 20 19 18 18 17 17 16 16 14 12 11 11 12 14 12 10 10 13 14 13 13 13 14 15
31 28 24 24 26 30 35 39 41 43 43 42 42 41 40 38 37 36 35 34 32 30 29 28 28 27 26 26 25 24 22 20 19 18 18 18 19 19 20 20 19 19 18 17 17 15 13 11 11 11 12 13 14 13 13 16 17 17 16 16 16 16
29 24 23 23 24 25 30 34 37 40 41 41 42 41 38 37 36 35 33 33 31 30 29 28 27 27 26 25 24 22 20 18 17 16 16 17 19 20 21 22 22 20 19 18 17 16 13 12 12 10 10 11 12 13 14 15 17 18 18 19 20 20
26 23 24 24 24 24 26 30 33 35 38 39 39 38 37 36 35 33 31 31 30 28 27 27 26 26 26 24 22 20 19 18 16 15 15 16 17 19 20 22 23 22 21 20 18 17 15 14 12 10 10 10 10 12 13 15 16 18 19 20 22 22
25 24 26 25 25 26 27 29 30 32 34 35 36 36 35 35 34 32 31 30 29 28 27 26 26 26 26 24 21 19 18 17 15 15 15 15 15 16 17 19 21 22 22 21 19 18 16 14 11 10 11 11 11 12 14 16 18 19 19 20 21 23
30 25 27 28 27 27 27 28 29 29 30 32 34 35 35 36 36 33 31 30 30 28 26 26 26 27 27 24 21 19 18 17 16 17 16 15 13 13 14 16 19 21 22 22 20 18 17 14 12 11 12 13 13 14 15 18 19 19 19 20 22 25
32 29 30 31 29 28 27 27 28 29 30 30 32 34 34 35 35 33 30 30 30 28 26 26 27 28 27 25 22 21 20 18 18 18 17 15 13 13 14 15 18 19 19 19 18 18 17 14 11 11 12 13 14 15 17 19 19 20 20 19 21 24
32 32 33 33 31 30 28 28 28 29 30 29 30 31 32 32 32 31 29 30 30 28 27 27 28 28 26 24 22 22 22 21 19 18 17 15 14 14 15 15 16 16 16 16 16 17 16 13 10 11 12 13 15 17 19 19 19 20 21 20 21 22
35 35 36 35 33 31 29 28 27 30 31 28 28 29 29 30 30 29 28 28 28 27 26 27 27 26 24 22 22 23 23 21 20 18 17 16 15 15 15 15 15 14 15 15 15 15 14 11 10 11 12 13 15 17 18 19 20 20 20 21 21 20
35 38 39 37 34 30 29 29 29 31 33 30 26 25 26 27 27 28 28 27 27 26 24 23 23 22 22 23 23 23 22 21 21 19 17 17 16 15 15 15 14 15 15 15 14 14 12 11 11 11 12 13 15 17 18 19 20 19 20 21 22 21
31 38 42 39 34 30 30 32 32 32 33 31 27 24 23 24 26 27 28 28 27 26 23 20 20 20 22 23 23 22 21 21 21 20 18 17 17 16 15 15 14 16 17 15 13 12 12 11 11 11 12 13 15 17 17 19 19 20 22 22 21 20
27 33 38 40 36 33 33 35 35 33 31 30 27 25 24 24 25 26 27 29 28 27 24 22 20 20 21 23 23 21 20 20 20 20 19 18 17 16 15 14 14 15 17 16 13 13 12 12 11 11 12 13 15 16 17 19 19 19 21 20 17 15
Wind_Direction
185 187 189 188 187 186 185 185 185 182 181 180 179 177 175 176 179 180 178 178 181 180 177 173 172 173 174 175 175 175 176 176 174 170 167 163 159 154 151 149 148 146 144 145 148 150 151 152 155 171 198 207 217 246 290 317 349 4 2 356 351 353
186 187 189 189 187 186 184 185 185 183 181 181 181 179 177 178 181 182 181 181 183 183 180 177 174 175 176 176 177 179 180 180 178 175 172 167 163 160 158 157 154 153 153 153 153 154 157 159 161 168 186 197 213 235 272 306 341 352 351 343 334 339
188 188 189 189 188 186 185 186 185 183 181 182 182 181 180 181 183 185 185 185 185 185 183 179 178 177 179 179 179 181 183 183 181 179 176 172 168 167 166 166 163 162 162 162 160 162 165 169 173 177 192 208 223 242 271 294 316 331 339 335 326 326
190 189 188 189 189 188 186 187 186 184 183 183 184 184 183 183 185 187 187 187 185 186 185 182 181 180 181 182 182 184 185 186 185 183 180 176 173 173 174 173 171 170 169 169 171 175 180 187 196 206 223 238 252 267 279 288 299 312 325 325 321 317
193 191 188 189 191 189 187 187 187 184 184 185 186 186 185 185 187 188 189 187 185 186 186 185 184 184 184 185 186 187 187 188 187 185 183 180 177 178 181 180 179 178 177 180 185 190 195 200 207 218 235 252 265 274 279 283 290 302 314 316 317 315
196 194 191 192 192 190 188 188 187 185 186 188 188 187 187 188 188 189 189 188 186 186 186 187 188 187 187 188 190 190 189 189 188 187 185 183 182 184 187 188 188 188 189 191 196 201 203 205 209 218 231 253 269 278 279 281 288 297 303 306 314 318
198 198 196 196 195 192 189 187 187 187 187 189 189 188 189 189 189 189 188 188 187 186 187 188 189 190 190 190 192 192 191 191 191 190 189 187 187 189 192 196 197 196 198 199 203 206 208 212 214 222 233 254 273 279 279 281 288 290 294 302 316 322
200 200 199 199 199 195 192 189 187 189 189 190 191 190 190 189 189 189 188 189 188 187 188 188 189 191 192 193 194 193 194 194 194 193 192 193 194 196 199 202 203 202 203 204 207 207 209 214 217 230 240 257 275 280 284 286 286 281 288 304 319 326
200 201 200 200 202 199 195 191 190 191 190 190 193 192 191 189 189 189 188 188 188 188 188 188 189 191 193 194 194 195 196 196 197 196 196 198 198 202 205 208 209 207 207 207 208 211 213 216 222 237 245 256 274 284 295 298 286 278 288 307 322 333
201 202 201 201 202 202 200 195 193 194 191 190 193 194 193 191 190 189 188 188 188 189 189 189 189 191 193 194 194 195 197 198 199 199 199 200 202 206 210 214 214 213 213 212 212 215 218 221 230 242 248 259 274 284 299 308 292 282 294 311 327 338
202 202 201 201 202 204 204 200 197 197 193 191 193 196 196 194 193 190 188 189 188 189 190 190 191 192 193 193 194 196 197 198 199 200 200 202 205 209 213 217 218 218 219 219 217 218 221 227 234 242 249 263 274 279 295 310 301 296 306 318 331 336
203 203 202 201 202 203 205 204 202 200 196 193 193 196 199 197 196 193 190 190 190 190 190 191 192 194 195 193 195 197 198 199 199 200 201 203 207 210 215 217 220 221 222 224 223 223 225 229 235 241 249 261 270 274 289 307 309 308 311 319 331 330
203 203 205 203 202 203 204 205 205 203 200 197 195 197 200 200 198 195 194 193 192 191 192 193 193 194 196 195 196 198 200 200 201 202 202 205 208 212 215 218 221 223 226 228 227 227 228 230 234 241 250 257 266 274 279 293 304 307 310 314 323 323
203 203 205 204 202 202 204 205 206 206 204 201 199 199 201 202 200 197 196 196 195 193 195 196 194 196 198 198 199 200 201 202 204 205 206 208 211 214 217 220 223 226 229 232 232 231 230 231 236 242 248 254 267 281 275 280 291 297 303 307 313 317
207 207 206 204 203 203 203 205 207 208 206 204 203 203 204 204 201 199 198 198 198 196 196 198 198 197 199 201 202 202 202 204 207 209 210 212 214 218 220 222 226 228 231 234 236 234 233 236 240 244 248 252 270 287 278 275 280 290 297 302 309 312
211 212 209 205 205 204 204 206 207 209 210 208 207 206 207 208 204 202 200 200 201 199 197 200 201 200 201 203 205 205 205 206 210 213 215 216 218 221 223 225 228 230 233 235 238 238 237 242 246 250 254 257 269 284 281 273 274 283 288 296 306 307
215 214 212 210 207 207 208 208 207 208 212 213 210 208 208 210 209 208 205 203 204 202 200 202 204 204 204 206 208 209 208 209 214 216 218 219 220 221 223 225 228 232 235 237 241 243 244 248 252 257 264 268 272 279 280 271 269 274 277 289 298 300
217 216 214 214 211 209 211 212 209 208 212 214 214 211 209 211 211 211 210 207 207 206 203 204 206 208 207 208 210 212 212 212 216 218 220 221 220 220 221 223 226 232 237 240 243 248 252 257 262 268 276 281 282 281 276 267 265 268 272 280 287 292
216 218 216 215 215 213 213 213 211 211 212 213 215 214 212 212 212 213 213 211 211 211 209 208 209 210 210 210 210 212 214 215 218 220 220 221 220 219 220 222 225 229 234 241 246 253 261 270 276 278 280 284 285 283 277 268 264 265 269 275 280 285
214 219 219 218 217 215 214 214 212 213 213 213 216 217 215 213 213 214 214 214 214 215 215 215 214 214 214 215 214 213 216 218 219 220 221 222 221 221 221 224 229 233 238 247 257 266 275 280 282 280 278 280 282 283 283 273 262 262 267 272 279 278
211 217 222 223 221 216 214 215 213 213 215 216 217 218 218 215 215 216 216 217 217 217 220 221 220 219 219 220 220 218 219 221 221 222 223 222 223 225 227 230 234 240 246 254 265 274 280 285 288 284 280 278 280 283 284 275 264 262 267 272 275 271
210 214 218 224 226 221 217 216 215 215 215 218 220 221 220 218 217 218 218 219 220 221 223 225 225 225 225 226 226 225 225 225 225 225 226 225 225 227 230 233 237 242 251 259 266 272 281 291 294 290 284 279 279 282 281 275 269 267 270 272 270 266
212 216 216 220 225 227 225 221 220 219 217 220 222 225 226 223 221 221 222 222 222 224 227 228 229 230 230 230 231 231 231 230 230 231 231 231 229 229 232 236 239 246 253 260 266 272 282 293 295 292 287 278 274 278 278 277 276 274 273 272 269 269
211 217 218 220 222 227 229 229 229 228 225 225 226 230 233 231 226 224 224 225 224 226 229 230 231 232 233 233 234 235 235 234 233 236 239 239 238 236 238 241 244 247 251 256 263 273 285 291 292 290 283 273 271 276 282 285 286 283 278 274 274 273
210 213 216 221 224 224 223 224 227 228 228 229 228 229 233 234 230 227 227 228 228 227 229 230 231 233 233 234 235 236 237 237 237 239 242 243 243 243 246 248 248 249 253 259 265 274 284 289 289 281 266 264 271 282 294 297 294 289 281 277 276 273
209 211 213 219 223 223 220 219 221 225 225 226 226 228 230 232 232 231 230 231 231 230 230 231 232 232 233 234 235 236 237 238 239 241 243 245 246 247 248 248 248 252 258 263 268 274 281 287 291 279 260 257 265 277 290 293 292 289 285 281 278 274
206 208 214 219 223 224 222 220 221 224 226 227 229 231 231 232 234 233 234 233 232 232 232 233 233 233 233 233 233 234 233 233 235 239 245 249 251 252 253 253 254 258 262 263 266 273 278 284 290 280 261 257 263 273 281 284 285 284 283 283 281 278
203 208 216 222 227 229 227 225 224 225 227 229 232 234 235 234 235 235 236 237 235 233 231 231 232 231 230 229 228 227 225 225 229 237 246 252 256 259 260 259 260 261 261 260 264 271 275 282 287 276 261 260 265 274 279 280 281 278 277 278 280 278
206 213 221 225 226 229 231 230 228 227 228 229 232 235 237 238 238 237 236 237 236 232 229 228 228 226 225 224 221 218 219 222 227 235 244 251 257 261 262 262 261 261 261 263 266 269 272 278 283 271 258 261 267 275 280 281 281 279 278 276 277 279
216 219 226 233 230 225 228 229 229 230 230 229 231 234 236 237 238 237 234 234 232 229 225 224 223 221 219 219 216 215 218 222 226 232 239 247 254 260 262 262 262 261 261 262 264 266 267 270 275 267 254 256 265 273 280 283 283 284 286 283 283 286
224 230 234 238 233 224 225 229 230 232 231 229 230 231 232 234 235 234 231 229 228 225 222 221 220 219 217 216 214 215 219 221 226 232 237 243 252 262 267 266 264 262 260 260 259 260 260 259 266 264 252 251 260 269 276 281 287 290 291 290 289 291
229 235 239 237 231 226 229 233 233 231 229 227 228 230 231 233 234 233 229 227 227 223 219 218 217 217 216 215 214 216 219 223 228 233 237 242 252 266 272 271 268 264 258 256 254 253 251 251 260 264 256 253 259 268 275 281 290 294 293 293 292 294
234 231 234 233 227 227 231 236 235 229 226 224 226 229 232 235 236 235 232 231 229 223 217 216 215 215 215 214 216 219 223 228 232 236 240 244 253 267 275 275 271 260 251 249 248 247 245 246 258 265 262 260 263 271 277 283 291 294 295 296 294 297
233 228 228 227 225 227 230 236 237 229 224 222 223 227 231 235 238 238 237 236 234 228 222 219 217 216 215 218 224 226 228 233 237 241 243 246 254 266 274 277 269 250 243 246 245 242 242 244 254 261 263 267 271 276 284 291 295 295 296 297 296 296
225 224 223 221 222 226 228 232 234 228 224 223 223 226 232 239 241 242 242 240 239 234 229 228 227 224 222 225 228 228 231 235 238 242 245 248 255 265 272 275 265 246 241 246 243 240 243 248 254 259 265 272 278 283 290 294 297 298 296 296 298 297
221 220 218 216 217 222 226 229 228 224 223 225 227 228 231 237 242 245 247 248 246 242 238 237 236 232 230 230 229 229 233 237 239 241 245 250 255 263 271 272 262 247 243 245 245 243 247 251 255 261 267 274 279 284 291 295 297 300 298 296 299 301
222 220 216 213 214 218 223 226 225 223 223 227 231 232 231 233 239 244 249 252 252 250 246 241 238 235 234 234 233 234 238 241 241 241 245 250 255 263 270 270 261 250 245 246 248 249 250 253 256 262 267 274 280 285 292 298 300 300 298 299 302 306